Regional Weather Roundup
Issued by NWS

Home | Current Version | Previous Version | Text Only | Print | Product List | Glossary Off
Versions: 1 2 3 4 5 6 7 8 9 10 11 12 13 14 15 16 17 18 19 20 21 22 23 24 25 26 27 28 29 30 31 32 33 34 35 36 37 38 39 40 41 42 43 44 45 46 47 48 49 50

000
ASUS43 KIND 260509
RWRIN

WEATHER ROUNDUP FOR INDIANA
NATIONAL WEATHER SERVICE INDIANAPOLIS IN
100 AM EDT SUN MAR 26 2017

NOTE: "FAIR" INDICATES FEW OR NO CLOUDS BELOW 12,000 FEET WITH NO
SIGNIFICANT WEATHER AND/OR OBSTRUCTIONS TO VISIBILITY.

* - STATION DOES NOT REPORT WEATHER SUCH AS PRECIPITATION OR FOG.

+ - STATION NOT QUALITY CONTROLLED BY THE NATIONAL WEATHER SERVICE.
    USE DATA WITH CAUTION...ESPECIALLY DEWPOINT AND RELATIVE
    HUMIDITY OBSERVATIONS.

INZ001>003-010>013-019-020-260600-
NORTHWEST INDIANA

CITY           SKY/WX    TMP DP  RH WIND       PRES   REMARKS
GARY /AIRPORT/ DRIZZLE   53  50  90 SE10      29.95F
KNOX *+        CLOUDY    48  37  66 E13       29.97F
LA PORTE +     RAIN      47  46  97 E12       29.99F
MICHIGAN CITY+ MIX PCPN  48  46  93 E6        29.98F
MONTICELLO +   LGT RAIN  52  51  95 E10G18    29.95F
RENSSELAER +   LGT RAIN  54  54 100 E13       29.94S
VALPARAISO     LGT RAIN  50  49  96 E13       29.97F FOG

$$

LMZ046-743>745-260600-
SOUTHERN LAKE MICHIGAN

STATION/POSITION TIME  TEMP    WIND        PRES    WAVE
                       AIR SEA DIR/SP/G            HT
                 (UTC) (F)     (DEG/KT/KT) (MB)    (FT)
BURNS HARBOR     0440   52     130/ 13/ 22 1014.9F
MICHIGAN CITY    0440   50     110/ 13/ 17   N/A

$$

INZ004-005-014>016-021>024-260600-
NORTH CENTRAL INDIANA

CITY           SKY/WX    TMP DP  RH WIND       PRES   REMARKS
GOSHEN         CLOUDY    45  40  82 E13       30.03F
LOGANSPORT +   LGT RAIN  48  48 100 E10       29.98F
PERU/GRISSOM   LGT RAIN  50  50 100 E9        29.97S
ROCHESTER +    CLOUDY    50  48  93 E10       30.00F
SOUTH BEND     LGT RAIN  45 N/A N/A E13       30.02S
WARSAW +       DRIZZLE   45  43  93 E7        30.02F

$$

INZ006>009-017-018-025>027-260600-
NORTHEAST INDIANA

CITY           SKY/WX    TMP DP  RH WIND       PRES   REMARKS
ANGOLA *+      CLOUDY    39  39 100 CALM      30.07S
AUBURN +       CLOUDY    41  37  87 E15       30.07F
FORT WAYNE     LGT RAIN  43  39  86 E13       30.04F
HUNTINGTON +   CLOUDY    42  41  96 E9        30.03S
KENDALLVILLE + CLOUDY    41  39  95 E8        30.06F

$$

INZ028-029-035-036-043>045-051>053-260600-
WEST CENTRAL INDIANA

CITY           SKY/WX    TMP DP  RH WIND       PRES   REMARKS
CRAWFORDSVL +  CLOUDY    58  55  91 SE10      29.94S
GREENCASTLE +  LGT RAIN  59  55  88 SE16G22   29.95S
LAFAYETTE      CLOUDY    60  56  86 SE7       29.92F
TERRE HAUTE    LGT RAIN  60  56  86 SE9       29.92S

$$

INZ030>032-037>040-046>048-054>057-064-065-260600-
CENTRAL INDIANA

CITY           SKY/WX    TMP DP  RH WIND       PRES   REMARKS
CP ATTERBURY + CLOUDY    59  55  88 SE5       29.98S
FRANKFORT +    CLOUDY    61  58  90 SE12      29.96F
GREENWOOD *+   MOCLDY    58  57  96 SE6       29.98R
INDIANAPOLIS   CLOUDY    58  57  97 E8        29.96R
-EAGLE CREEK   CLOUDY    59  57  93 SE5       29.96S
KOKOMO +       LGT RAIN  51  49  92 E13       29.99F
MARION +       CLOUDY    49  47  93 E13       30.00F FOG
MT COMFORT *+  CLOUDY    57  55  94 SE7       29.98S
SHELBYVILLE    LGT RAIN  61  55  81 SE9       29.98R
ZIONSVILLE +   MOCLDY    56  56  97 E6        29.97S

$$

INZ033-034-041-042-049-050-058-059-260600-
EAST CENTRAL INDIANA

CITY           SKY/WX    TMP DP  RH WIND       PRES   REMARKS
MUNCIE         CLOUDY    55  52  89 E7        30.00F
RICHMOND +     LGT RAIN  55  54  94 SW6       30.03F

$$

INZ060-061-067>069-081>083-085>088-260600-
SOUTHWEST INDIANA

CITY           SKY/WX    TMP DP  RH WIND       PRES   REMARKS
EVANSVILLE     RAIN      61  57  87 S12G21    29.93F
HUNTINGBURG *+ LGT RAIN  61  56  83 S10       29.95S
WASHINGTON +   RAIN      59  57  92 CALM      29.93F

$$

INZ062-063-066-070>080-084-089>092-260600-
SOUTH CENTRAL AND SOUTHEAST INDIANA

CITY           SKY/WX    TMP DP  RH WIND       PRES   REMARKS
BLOOMINGTON    LGT RAIN  59  55  87 S8        29.96S
MADISON *+     CLOUDY    61  52  72 S10       30.03S
NORTH VERNON + DRIZZLE   64  54  68 S13G18    30.00S

$$




USA.gov is the U.S. government's official web portal to all federal, state and local government web resources and services.